Location: *
(51.8167°N, 12.5000°E)
Time: 18:59:51
(UTC+00:00)

Cosmos 1437 Rocket - Pass Details

Date: 16 September 2019
Orbit: 506 x 563 km, 81.2° (Epoch: 21 October)

Event Time Altitude Azimuth Distance (km) Brightness Sun altitude
Rises 19:35:01 0° 348° (NNW) 2,660 7.0 -20.0°
Reaches altitude 10° 19:37:12 10° 349° (N) 1,759 6.0 -20.3°
Maximum altitude 19:41:03 79° 77° (ENE) 529 2.5 -20.8°
Enters shadow 19:41:17 74° 121° (ESE) 538 2.5 -20.8°
